Weather History for Puebla, Mexico

Change the Weather History Date:

Monday, November 12, 2012

  Actual Average Record
Temperature  
Mean Temperature 62 °F -  
Max Temperature 77 °F 69 °F 77 °F (2007)
Min Temperature 48 °F 45 °F 37 °F (2010)
Degree Days  
Heating Degree Days 2    
Growing Degree Days 12 (Base 50)    
Moisture  
Dew Point 42 °F    
Average Humidity 52    
Maximum Humidity 93    
Minimum Humidity 14    
Precipitation  
Precipitation 0.00 in - - ()
Sea Level Pressure  
Sea Level Pressure 30.23 in    
Wind  
Wind Speed 7 mph ()    
Max Wind Speed 16 mph    
Max Gust Speed -    
Visibility 6.3 miles    
Events      
Averages and records for this station are not official NWS values.
T = Trace of Precipitation, MM = Missing Value Source: Averaged Metar Reports

Daily Weather History Graph

Daily Weather History Graph

Search for Another Location

Airport:

Trip Planner

Search our weather history database for the weather conditions in past years. The results will help you decide how hot, cold, wet, or windy it might be!

Date:

Astronomy

Nov. 12, 2012 Rise Set
Actual Time 6:39 AM CST 5:55 PM CST
Civil Twilight 6:16 AM CST 6:18 PM CST
Nautical Twilight 5:50 AM CST 6:44 PM CST
Astronomical Twilight 5:24 AM CST 7:11 PM CST
Moon 5:13 AM CST (11/12) 4:58 PM CST (11/12)
Length of Visible Light 12h 01m
Length of Day
11h 15m
Waning Crescent, 2% of the Moon is Illuminated
Nov 12
Waning Crescent
Nov 13
New
Nov 20
First Quarter
Nov 28
Full
Dec 6
Last Quarter

Hourly Weather History & Observations

Time (CST) Temp. Windchill Dew Point Humidity Pressure Visibility Wind Dir Wind Speed Gust Speed Precip Events Conditions
2:45 AM 51 °F - 47 °F 82% 29.90 in 3 mi Calm Calm - -  
5:45 AM 50 °F - 46 °F 82% 29.96 in 3 mi Calm Calm - -   Clear
6:20 AM 44.6 °F 40.7 °F 42.8 °F 93% 30.37 in 6.0 mi North 6.9 mph - N/A   Partly Cloudy
6:43 AM 46.4 °F 42.4 °F 42.8 °F 87% 30.38 in 6.0 mi NNW 8.1 mph - N/A   Partly Cloudy
7:40 AM 50.0 °F - 44.6 °F 82% 30.40 in 6.0 mi NNW 6.9 mph - N/A   Partly Cloudy
8:41 AM 59.0 °F - 44.6 °F 59% 30.41 in 6.0 mi NW 9.2 mph - N/A   Partly Cloudy
8:50 AM 57 °F - 40 °F 42% 30.05 in 3 mi SSW 2.2 mph - -   Haze
9:45 AM 68.0 °F - 39.2 °F 35% 30.40 in 7.0 mi North 16.1 mph - N/A   Partly Cloudy
10:42 AM 71.6 °F - 37.4 °F 29% 30.38 in 8.0 mi North 12.7 mph - N/A   Partly Cloudy
11:48 AM 73.4 °F - 37.4 °F 27% 30.36 in 8.0 mi NNW 10.4 mph - N/A   Partly Cloudy
11:50 AM 74 °F - 36 °F 15% 29.97 in 6 mi WSW 2.2 mph - -   Haze
12:44 PM 77.0 °F - 32.0 °F 19% 30.32 in 8.0 mi NE 8.1 mph - N/A   Partly Cloudy
1:43 PM 75.2 °F - 39.2 °F 27% 30.31 in 8.0 mi NNE 15.0 mph - N/A   Scattered Clouds
2:40 PM 74 °F - 35 °F 14% 29.82 in 6 mi NE 6.7 mph - -   Haze
2:47 PM 73.4 °F - 37.4 °F 27% 30.31 in 8.0 mi NE 12.7 mph - N/A   Scattered Clouds
3:43 PM 71.6 °F - 37.4 °F 29% 30.30 in 8.0 mi North 13.8 mph - N/A   Scattered Clouds
4:41 PM 68.0 °F - 42.8 °F 40% 30.32 in 8.0 mi NNE 15.0 mph - N/A   Partly Cloudy
5:40 PM 66 °F - 38 °F 24% 29.77 in 6 mi NE 8.9 mph - -   Haze
5:42 PM 60.8 °F - 46.4 °F 59% 30.35 in 7.0 mi NNE 15.0 mph - N/A   Scattered Clouds
6:44 PM 59.0 °F - 46.4 °F 63% 30.38 in 7.0 mi NNW 8.1 mph - N/A   Partly Cloudy
7:44 PM 55.4 °F - 46.4 °F 72% 30.41 in 7.0 mi North 8.1 mph - N/A   Scattered Clouds
8:42 PM 57.2 °F - 46.4 °F 67% 30.44 in 8.0 mi North 16.1 mph - N/A   Mostly Cloudy
8:50 PM 59 °F - 47 °F 55% 29.85 in 3 mi Calm Calm - -  
9:42 PM 53.6 °F - 46.4 °F 77% 30.45 in 8.0 mi North 13.8 mph - N/A   Scattered Clouds
10:40 PM 53.6 °F - 46.4 °F 77% 30.45 in 8.0 mi North 11.5 mph - N/A   Scattered Clouds
11:50 PM 55 °F - 47 °F 66% 29.91 in 3 mi Calm Calm - -